STARLINK-1547, 46347

Orbit data source: Space-Track

STARLINK-1547, 46347 is a payload satellite owned by SpaceX/Seattle (US) in LEO that was launched on Thu, 03 Sep 2020 UTC via an FALCON 9 launch vehicle from the Air Force Eastern Test Range (AFETR). Payload-class satellites include a variety of spacecraft equipped with specific instruments for various scientific and technological missions. These include communications satellites like Starlink; space stations such as the ISS; scientific satellites like the Hubble; Earth observation satellites from companies like Planet Labs, Umbra, and HawkEye 360; GPS; miniature CubeSats for education and research; and military/defense satellites.

Loading next visibility...
Identifier
46347, 2020-062Y
Orbit
LEO
Country
Flag of USUS
Related business
Manufacturer
SpaceX/Seattle
Mission
Partially operational Commercial Communications
Bus & Motor
STARLINK, Unknown motor
Mass
260 kg wet, ~248 kg dry
Launch date (UTC)
2020-09-03 (5 years ago)
Launch vehicle
FALCON 9
Launch site
Air Force Eastern Test Range (AFETR)
Object type
Payload
Rocket body
Debris
Shape & HBR
Box + 1 Pan, 10.1 m
Radar Cross Section
13.562 m², Large (>1 m²)

Expand to show TLE details & history
Last TLE update: 11 hours ago

TLE from 11 hours ago
0 STARLINK-1547
1 46347U 20062Y   25286.94834172  .00089267  00000-0  30322-2 0  9999
2 46347  53.0471 257.9890 0006170  20.6691 339.4557 15.29730245282987
Epoch: 2025-10-13T22:45Z
TLE epoch observation values (Epoch: 2025-10-13T22:45:36.724Z)
Latitude
0.00001°
Longitude
-106.15781°
Altitude
473.545 km
Speed
7.633 km/s
True Right ascension
17h 11m 57s
True Declination
0° 00' 00"
Sunlit
Object was in daylight at epoch
Visualization orbit readout
Latitude
Unknown
Longitude
Unknown
Altitude
Unknown
Speed
Unknown
Apparent Right ascension
Unknown
Apparent Declination
Unknown
Sunlit
N/A
Visualization observer readout
Local Sidereal Time
04:43:01
Azimuth
Unknown
Elevation
Unknown
Doppler factor
Unknown
Orbital elements
Apogee altitude
481.122 km
Perigee altitude
472.663 km
Semi-major axis
6,855.03 km
Eccentricity
0.00062
Inclination
53.0471°
RAAN
257.989°
Arg. of periapsis
20.6691°
True anomaly
339.43087°
Mean anomaly
339.4557°
Eccentric anomaly
339.44329°
Mean motion
3.8241 °/min
Orbital period
94.14 mins
BSTAR
0.0030322
Loading maneuver chart data...
Computing Atmospheric mass density...
Loading historical data...
Loading historical data...
Loading historical data...
Loading historical data...
Loading historical data...
Loading historical data...
Loading historical data...

Documentation

Showing up to 5 results
|